Lid_Strength_Index
-1 -1 -1 -1 -1 -1 -1 -1 -1 0 0 -0 -1 -1 -1 -1 -1 3 7 5 6 2 3 7 7 6 6 6 4 4 9 11 10 9 9 7 8 7 8 8 8 6 6 4 2
-1 -1 -1 -1 -1 -1 -1 -1 -1 0 -0 -1 -1 -1 -1 -1 2 5 2 1 1 2 7 9 9 6 8 6 6 8 10 9 7 9 8 8 8 8 9 9 9 7 5 3 2
-1 -1 -1 -1 -1 -1 -1 -1 -1 -1 -1 -1 -1 -1 -1 0 6 6 0 -0 -0 1 7 8 8 7 8 7 7 8 9 8 8 8 7 7 8 7 9 10 8 8 5 4 4
-1 -1 -1 -1 -1 -1 -1 -1 -1 -1 -1 -1 -1 -1 -1 3 11 5 0 0 -1 3 7 9 9 9 8 9 7 9 7 7 7 7 7 8 7 9 8 9 7 6 4 4 4
-0 -1 -1 -1 -1 -1 -1 -1 -1 -1 -1 -1 -1 -1 2 7 8 2 0 1 1 6 8 9 10 9 9 8 8 9 9 8 8 8 8 7 8 9 8 7 7 6 4 4 4
-0 -0 -0 -1 -1 -1 -1 -1 -1 -1 -1 -1 -1 -1 4 9 4 2 2 2 5 7 8 9 9 8 8 8 9 8 8 9 9 8 8 9 9 9 8 7 7 7 6 5 4
-0 -0 -0 -0 -1 -1 -1 -1 -1 -1 -1 -1 -1 2 6 7 4 3 3 5 6 7 9 8 8 7 8 8 8 8 10 10 10 9 10 9 10 10 10 9 8 8 8 6 5
-0 -0 -0 -0 -1 -1 -1 -1 -1 -1 -1 -1 -1 3 7 3 3 4 4 6 6 7 7 7 7 7 8 7 9 10 10 13 10 9 9 9 11 8 8 9 9 9 10 8 7
-0 -0 -0 -0 -0 -1 -1 -1 -1 -1 -1 -1 1 4 8 3 6 5 5 7 7 7 8 7 7 8 8 11 13 12 14 13 12 9 10 11 12 10 10 10 10 10 10 9 8
-0 -0 -0 -0 -0 -1 -1 -1 -1 -1 -0 0 3 7 6 8 5 6 6 6 8 8 10 9 9 10 10 11 16 14 14 12 13 11 11 12 11 11 10 10 10 10 10 10 9
-0 -0 -0 -0 -1 -1 -0 1 4 5 3 7 7 8 8 5 5 7 7 8 8 9 13 10 12 14 11 10 11 11 13 14 12 11 12 12 12 10 9 10 10 10 9 9 9
-0 0 -0 -0 -1 -1 0 5 4 4 8 5 6 6 5 5 8 8 5 9 9 12 9 11 14 11 9 11 11 12 13 13 12 10 11 12 12 11 10 10 10 10 10 9 8
-0 0 0 -0 -0 0 2 4 2 3 8 7 6 7 6 5 8 7 7 7 9 10 11 12 11 8 10 13 12 13 13 14 13 12 12 14 14 12 10 10 9 9 9 9 9
0 0 -0 -0 2 2 3 1 1 2 11 10 9 7 6 6 8 5 5 7 10 10 10 10 10 10 11 12 12 15 12 12 12 14 16 14 19 14 12 11 11 10 10 11 10
1 1 0 0 2 4 2 1 0 3 17 9 9 5 6 8 8 8 5 7 10 11 11 12 12 11 11 11 10 13 11 12 12 14 15 16 18 16 14 13 12 12 10 10 9
1 1 0 1 1 1 1 0 2 11 18 11 9 9 9 9 9 8 8 6 7 10 10 11 11 10 11 10 10 10 11 12 14 15 19 16 17 17 15 13 13 11 10 9 9
0 0 1 0 4 -0 0 4 12 17 9 12 12 10 10 11 11 10 11 11 12 13 14 11 12 11 10 12 11 12 13 18 19 19 20 16 17 15 13 13 12 11 9 9 9
0 0 1 1 0 0 3 8 17 12 11 9 10 10 12 11 11 11 12 12 11 12 13 15 15 12 10 11 13 13 13 16 20 20 19 17 19 16 11 11 11 9 9 9 9
1 2 2 2 1 1 6 14 15 11 9 10 10 12 13 11 12 12 12 13 11 11 14 15 15 11 11 11 11 13 14 12 16 20 19 17 15 12 12 11 12 11 10 10 9
3 4 4 1 0 3 9 12 10 8 8 9 13 11 14 13 13 13 13 11 12 10 11 12 15 12 11 10 11 12 11 15 16 21 22 19 18 16 13 13 11 11 10 10 9
6 9 5 1 1 7 13 12 9 7 7 9 10 12 11 13 12 13 13 11 10 10 10 11 12 15 12 13 13 13 13 13 13 15 19 20 18 15 13 11 12 11 10 10 9
8 13 5 2 9 11 12 10 8 8 7 8 8 9 11 11 12 13 12 12 10 10 12 11 12 15 14 12 11 12 12 12 15 17 16 16 17 12 12 11 10 10 9 9 9
13 12 6 5 13 13 10 9 8 9 9 9 9 8 8 10 13 11 11 9 10 11 12 12 14 17 16 14 12 13 13 12 12 14 18 19 18 11 11 11 9 9 9 9 9
11 14 13 10 10 11 12 11 11 8 8 8 9 8 10 11 9 11 11 9 8 9 8 9 13 15 16 15 14 15 13 13 13 16 16 16 15 13 12 11 10 10 9 9 9
11 13 12 15 13 11 10 11 12 12 9 8 10 10 10 13 12 12 11 10 9 8 9 10 15 14 13 13 14 15 15 14 14 13 16 14 15 13 11 11 10 10 10 10 9
12 12 11 12 11 11 11 12 12 11 10 11 11 10 10 12 11 12 11 11 11 10 10 10 16 14 16 12 13 15 14 13 13 13 14 14 15 12 11 11 11 10 10 10 9
10 9 10 12 13 13 13 13 12 10 11 9 9 10 11 10 9 8 8 8 9 10 11 12 15 16 18 14 15 17 15 14 13 12 13 15 13 11 11 10 10 9 8 9 9